www.pogodaiklimat.ru

ПОГОДА в Сакраменто, CA

  • Прогноз погоды в Сакраменто
  • Монитор погоды в Сакраменто
  • Климат в Сакраменто

АРХИВ ПОГОДЫ в Сакраменто

Время (UTC), дата Ветер
(напр.,м/с)
 
Видим.   Явления Облачность Т
(С)
Тd
(С)
f
(%)
Тe
(С)
Тes
(С)
Комфортность

P
(гПа)

Po
(гПа)
Тmin
(С)
Tmax
(С)
R
(мм)
SD
(см)
07:53 23.03 ЮВ  8 км  дождь, дымка  10/10 1200 м  +10.6  +10.0  96  +8  +8    1020.4  1019.6      5.1   
08:23 23.03 С  6 км  дождь, дымка  10/10 150 м  +10.6  +10.0  96  +8  +8      1019.6         
08:53 23.03 ЮВ  5 км  дождь, дымка  10/10 150 м  +10.6  +10.0  96  +7  +7    1020.3  1019.2         
09:53 23.03 Ю  13 км  дождь  10/10 750 м  +11.1  +10.0  93  +9  +9    1020.1  1019.2         
10:53 23.03 Ю  13 км  слабый дождь  10/10 1470 м  +10.6  +10.0  96  +8  +8    1020.0  1018.9  +10.0  +11.7  21.8   
11:53 23.03 В  14 км  слабый дождь  10/8 1500 м
[средняя] 
+10.6  +10.0  96  +8  +8    1019.3  1018.2         
12:53 23.03 З  16 км    10/0 3000 м
[средняя] 
+10.6  +9.4  92  +8  +8    1020.3  1019.2         
13:53 23.03 Ю  16 км    10/0 3000 м
[средняя] 
+10.6  +10.0  96  +8  +8    1020.6  1019.6      1.0   
14:53 23.03 Ю  16 км    8/2 270 м
[средняя] 
+11.1  +10.0  93  +9  +9    1021.2  1020.2         
15:53 23.03 Ю  16 км    8/8 1440 м  +12.2  +10.0  86  +10  +10    1021.4  1020.6         
16:53 23.03 Ю  16 км    8/8 450 м  +13.3  +10.0  80  +12  +12    1021.8  1020.9  +10.6  +13.3  1.0   
17:53 23.03 Ю  16 км    8/8 540 м  +14.4  +10.0  75  +12  +13    1021.9  1020.9         
18:53 23.03 Ю  16 км    5/5 720 м  +15.0  +10.0  72  +14  +17    1021.5  1020.6         
19:53 23.03 Ю  16 км    5/5 750 м  +16.1  +8.3  60  +15  +19    1021.3  1020.2         
20:53 23.03 Ю  16 км    5/5 1050 м  +16.7  +8.3  58  +16  +19    1020.8  1019.9         
21:53 23.03 Ю  16 км    5/5 1050 м  +17.2  +7.8  54  +17  +19    1020.5  1019.6         
22:53 23.03 Ю  16 км    8/5 1500 м
[средняя] 
+17.2  +7.2  52  +17  +19    1020.2  1019.2  +13.3  +17.8     
23:53 23.03 С  16 км    5/5 1950 м  +17.2  +6.1  48  +17  +19    1020.4  1019.6         
00:53 24.03 СВ  16 км    5/2 1800 м
[средняя] 
+12.2  +7.8  74  +10  +10    1021.1  1020.2         
01:53 24.03 В  16 км    5/5 1800 м  +11.1  +7.2  77  +9  +9    1021.8  1020.9         
02:53 24.03 В  16 км    5/0 2100 м
[средняя] 
+10.6  +6.7  77  +9  +9    1022.1  1021.3         
03:53 24.03 С  16 км    2/0 2100 м
[средняя] 
+8.3  +6.1  86  +5  +5    1022.5  1021.6         
04:53 24.03 СВ  16 км    ясно  +8.3  +6.7  90  +6  +6    1022.9  1021.9  +7.2  +17.8     
05:53 24.03 СВ  16 км    ясно  +7.8  +6.7  93  +5  +5    1023.4  1022.6         
06:53 24.03 СВ  16 км    ясно  +7.2  +6.1  93  +4  +4    1023.5  1022.6         
07:53 24.03 СВ  16 км    ясно  +6.7  +5.6  93  +3  +3    1023.2  1022.3         
08:53 24.03 СВ  16 км    ясно  +6.1  +5.0  93  +4  +4    1023.1  1021.9         
09:53 24.03 С  16 км    ясно  +6.1  +5.6  97  +2  +2    1022.8  1021.9         
10:53 24.03 С  16 км    ясно  +5.6  +5.0  96  +3  +3    1022.7  1021.6  +4.4  +8.9     
11:53 24.03 СЗ  16 км    2/0 6600 м
[верхняя] 
+5.6  +4.4  92  +2  +2    1022.8  1021.9         
12:53 24.03 СЗ  16 км    2/0 6600 м
[верхняя] 
+5.6  +5.0  96  +2  +2    1023.1  1022.3         
13:53 24.03 СЗ  16 км    8/0 7500 м
[верхняя] 
+6.7  +6.1  96  +3  +3    1023.4  1022.3         
14:53 24.03 СЗ  16 км    8/0 7500 м
[верхняя] 
+8.9  +7.2  89  +6  +6    1023.7  1022.6         
15:53 24.03 СЗ  16 км    8/0 7500 м
[верхняя] 
+10.6  +7.2  79  +8  +10    1024.1  1023.0         
16:53 24.03 нст  16 км    8/0 7500 м
[верхняя] 
+11.1  +8.3  83  +9  +15    1024.3  1023.3  +5.0  +11.1     
17:53 24.03 СЗ  16 км    10/0 7500 м
[верхняя] 
+13.3  +7.8  69  +12  +18    1024.3  1023.3         
18:53 24.03 СЗ  16 км    10/0 7500 м
[верхняя] 
+13.9  +7.2  64  +14  +25  опасность
простуды 
1023.9  1023.0         
19:53 24.03 нст  16 км    10/0 7500 м
[верхняя] 
+15.6  +8.3  62  +16  +28  опасность
простуды 
1023.1  1022.3         
20:53 24.03   16 км    10/0 7500 м
[верхняя] 
+16.7  +7.2  53  +17  +31  опасность
простуды 
1022.3  1021.3         
21:53 24.03 нст  16 км    10/0 7500 м
[верхняя] 
+17.2  +6.7  50  +18  +27    1021.6  1020.6         
22:53 24.03 З  16 км    10/0 6000 м
[средняя] 
+17.2  +7.2  52  +17  +19    1020.9  1019.9  +11.1  +17.2     
23:53 24.03 нст  16 км    10/0 6000 м
[средняя] 
+16.7  +7.8  56  +17  +19    1020.5  1019.6         
00:53 25.03 З  16 км    5/0 6000 м
[средняя] 
+14.4  +6.7  60  +14  +15    1020.6  1019.6         
01:53 25.03 В  16 км    8/0 6000 м
[средняя] 
+14.4  +7.2  62  +14  +14    1020.0  1018.9         
02:53 25.03   16 км    8/0 6000 м
[средняя] 
+11.1  +7.2  77  +11  +11    1020.2  1019.2         
03:53 25.03   16 км    8/0 6000 м
[средняя] 
+11.1  +7.2  77  +11  +11    1020.3  1019.2         
04:53 25.03   16 км    5/0 6000 м
[средняя] 
+10.6  +7.2  79  +10  +10    1020.3  1019.2  +9.4  +17.2     
05:53 25.03   16 км    ясно  +8.9  +6.1  83  +8  +8    1020.3  1019.2         

 

Местоположение метеостанции Sacramento International Airport: широта 38.7014 долгота -121.5939 высота над уровнем моря 8 м.

В архиве по умолчанию представлена погода в Сакраменто за последние 1-2 суток. Обновление информации о фактической погоде в базе происходит ежечасно! Архивные данные за месяц целиком и за предыдущие месяцы Вы можете получить, выбрав интересующий диапазон дат из раскрывающегося списка и нажав кнопку "Ввод!".

Внимание! Архив погоды МЕТАР в базе сайта хранится не более 60 дней. Нет смысла пытаться выбрать более раннюю дату.

Внимание! Время в таблицах - всемирное. Для получения местного времени необходимо прибавить поправку, которая в Сакраменто равна -8 ч.

Ветер - указаны скорость ветра в м/с и направление, откуда дует ветер: С - северный, СВ - северо-восточный, В - восточный, ЮВ - юго-восточный, Ю - южный, ЮЗ - юго-западный, З - западный, СЗ - северо-западный.
Видимость - горизонтальная дальность видимости в метрах или километрах. При видимости от 1 до 10 км при отсутствии осадков обычно наблюдается дымка, при ухудшении видимости до 1 км и менее - туман. В сухую погоду видимость может ухудшаться дымом, пылью или мглою.
Атмосферные явления - указаны явления, наблюдавшиеся в указанный момент времени.
Облачность - указаны через наклонную черту верхняя и нижняя облачность в баллах и высота нижней границы облаков в метрах. Внимание: облачность, как и прочие метеорологические величины в США измеряются автоматическими метеостанциями. Указанные значения в баллах носят условный характер и показывают процент времени, в течение которого, в среднем, лазерный луч высотомера отражался от облаков обратно.
T - Температура воздуха - температура, измеренная на высоте 2 м над землей.
Td - Температура точки росы - температура, при понижении до которой содержащийся в воздухе водяной пар достигнет насыщения.
f - Относительная влажность воздуха - влажноcть воздуха, измеренная на высоте 2 м над землей.
Te - Эффективная температура - температура, которую ощущает одетый по сезону человек в тени. Характеристика душности погоды. При расчете учитывается влияние влажности воздуха и скорости ветра на теплоощущения человека.
Tes - Эффективная температура на солнце - температура, которую ощущает человек, с поправкой на солнечный нагрев. Характеристика знойности погоды. Зависит от высоты солнца над горизонтом, облачности и скорости ветра. Ночью, в пасмурную погоду, а также при ветре 12 м/с и более поправка равна нулю.
P - Атмосферное давление - приведенное к уровню моря атмосферное давление.
Po - Атмосферное давление - измеренное на уровне метеостанции атмосферное давление.
Tmin - Минимальная температура - минимум температуры воздуха на высоте 2 м над землей.
Tmax - Максимальная температура - максимум температуры воздуха на высоте 2 м над землей.
R - Количество осадков - Количество выпавших осадков за 3 или 6 часов, мм.
SD - Снежный покров - Высота снежного покрова, см.